time_stamp(utc),avg(mph),gust(mph),direction(deg),12m_air_temp(f),sonic_u(cm/s),sonic_v(cm/s),sonic_w(cm/s),pressure,2m_air_temp(f),pyranometer(W/m^2)
"2017-01-29 00:00:21+00",8.0,9.0,,37,-257,-247,-2,1007.82,34.1,0
"2017-01-29 00:05:21+00",8.1,9.1,,37,-239,-279,1,1007.89,34,0
"2017-01-29 00:10:21+00",8.4,9.4,,36.9,-268,-253,0,1007.9,33.8,0
"2017-01-29 00:15:21+00",7.5,7.5,,36.9,-242,-240,-1,1007.94,33.8,0
"2017-01-29 00:20:21+00",8.0,8.0,,37,-273,-200,5,1008.02,33.8,0
"2017-01-29 00:25:21+00",7.7,8.7,,37.3,-301,-166,8,1007.89,33.7,0
"2017-01-29 00:30:21+00",7.8,8.8,,37.1,-294,-171,8,1008.04,33.5,0
"2017-01-29 00:35:21+00",7.6,8.6,,37,-267,-190,11,1008.02,33.3,0
"2017-01-29 00:40:21+00",8.2,9.2,,37.1,-296,-194,10,1008.06,33.1,0
"2017-01-29 00:45:21+00",8.9,10.9,,36.8,-285,-272,-1,1008.17,33.1,0
"2017-01-29 00:50:21+00",9.7,10.7,,36.9,-343,-241,14,1008.14,33.3,0
"2017-01-29 00:55:21+00",8.9,9.9,,36.9,-311,-229,14,1008.2,33.4,0
"2017-01-29 01:00:21+00",8.9,9.9,,36.8,-285,-252,2,1008.25,33.6,0
"2017-01-29 01:05:21+00",8.9,8.9,,36.7,-285,-263,2,1008.29,33.8,0
"2017-01-29 01:10:21+00",9.5,10.5,,36.8,-314,-255,4,1008.3,33.9,0
"2017-01-29 01:15:21+00",9.2,10.2,,36.9,-295,-265,-3,1008.27,34.1,0
"2017-01-29 01:20:21+00",8.4,9.4,,36.7,-268,-258,3,1008.14,34,0
"2017-01-29 01:25:21+00",7.4,8.4,,36.7,-245,-194,4,1008.1,33.9,0
"2017-01-29 01:30:21+00",7.0,8.0,,36.9,-210,-238,-1,1008.07,33.9,0
"2017-01-29 01:35:21+00",8.4,8.4,,36.9,-223,-283,0,1008.1,33.8,0
"2017-01-29 01:40:21+00",8.6,9.6,,36.9,-224,-315,-3,1008.2,33.5,0
"2017-01-29 01:45:21+00",7.6,8.6,,36.6,-177,-284,-1,1008.11,33.4,0
"2017-01-29 01:50:21+00",6.8,7.8,,36.4,-144,-256,-3,1008.12,33.4,0
"2017-01-29 01:55:21+00",6.7,7.7,,36.3,-151,-249,-6,1008.13,33.4,0
"2017-01-29 02:00:21+00",6.2,7.2,,36.4,-163,-220,-4,1008.07,33.3,0
"2017-01-29 02:05:21+00",6.0,7.0,,36.4,-158,-210,-1,1008.02,33.2,0
"2017-01-29 02:10:21+00",6.4,7.4,,36.5,-170,-219,-3,1008.01,33.1,0
"2017-01-29 02:15:21+00",7.3,8.3,,36.9,-189,-259,-1,1008.02,33.1,0
"2017-01-29 02:20:21+00",7.3,7.3,,37,-142,-271,-5,1008.01,33.3,0
"2017-01-29 02:25:21+00",7.6,7.6,,37,-157,-282,-6,1008.05,33.5,0
"2017-01-29 02:30:21+00",8.2,9.2,,37.2,-199,-311,-1,1008.04,33.5,0
"2017-01-29 02:35:21+00",7.6,7.6,,37.5,-199,-261,-3,1007.97,33.4,0
"2017-01-29 02:40:21+00",7.1,7.1,,37.5,-159,-263,-3,1008,33.4,0
"2017-01-29 02:45:21+00",7.8,8.8,,37.6,-166,-291,-5,1007.89,33.6,0
"2017-01-29 02:50:21+00",8.3,9.3,,37.8,-170,-311,-7,1007.89,33.8,0
"2017-01-29 02:55:21+00",8.3,9.3,,37.9,-153,-321,-8,1007.76,34,0
"2017-01-29 03:00:21+00",8.0,8.0,,37.9,-165,-295,-5,1007.78,34.3,0
"2017-01-29 03:05:21+00",8.2,8.2,,37.9,-173,-304,-6,1007.67,34,0
"2017-01-29 03:10:21+00",8.1,8.1,,38.1,-197,-307,-4,1007.71,34,0
"2017-01-29 03:15:21+00",8.2,9.2,,38.3,-193,-306,-6,1007.57,34,0
"2017-01-29 03:20:21+00",8.9,8.9,,38.2,-173,-335,-7,1007.47,34.4,0
"2017-01-29 03:25:21+00",8.5,8.5,,38.2,-181,-319,-6,1007.38,34.4,0
"2017-01-29 03:30:21+00",8.8,9.8,,38.1,-183,-331,-6,1007.53,34.3,0
"2017-01-29 03:35:21+00",8.7,9.7,,38,-188,-324,-5,1007.58,34.2,0
"2017-01-29 03:40:21+00",8.6,9.6,,38,-196,-324,-3,1007.45,34.1,0
"2017-01-29 03:45:21+00",8.6,9.6,,37.9,-200,-323,-4,1007.41,34.1,0
"2017-01-29 03:50:21+00",8.7,9.7,,37.6,-201,-324,-3,1007.4,34.2,0
"2017-01-29 03:55:21+00",9.2,10.2,,37.6,-204,-348,2,1007.37,34.3,0
"2017-01-29 04:00:21+00",9.8,10.8,,37.7,-201,-371,-2,1007.39,34.7,0
"2017-01-29 04:05:21+00",10.5,11.5,,37.8,-270,-388,0,1007.45,35.4,0
"2017-01-29 04:10:21+00",10.4,12.4,,38,-343,-301,4,1007.41,36,0
"2017-01-29 04:15:21+00",10.7,11.7,,38.5,-348,-310,4,1007.49,36.5,0
"2017-01-29 04:20:21+00",17.9,22.9,,39.1,-720,-367,-9,1007.63,37,0
"2017-01-29 04:25:21+00",14.2,17.2,,38.5,-595,-145,34,1007.66,37.4,0
"2017-01-29 04:30:21+00",16.6,22.6,,38.5,-700,-258,35,1007.74,37.4,0
"2017-01-29 04:35:21+00",16.4,19.4,,38.1,-709,-201,26,1007.81,37.4,0
"2017-01-29 04:40:21+00",22.2,28.2,,38.4,-947,-161,43,1007.63,37.5,0
"2017-01-29 04:45:21+00",18.4,21.4,,37.9,-809,-65,31,1007.62,37.4,0
"2017-01-29 04:50:21+00",16.9,20.9,,37.3,-735,-19,20,1007.53,36.9,0
"2017-01-29 04:55:21+00",16.3,18.3,,36.9,-718,54,40,1007.35,36.5,0
"2017-01-29 05:00:21+00",14.3,16.3,,36.7,-625,-7,37,1007.48,36.2,0
"2017-01-29 05:05:21+00",13.7,15.7,,36.7,-612,37,23,1007.31,36,0
"2017-01-29 05:10:21+00",13.5,15.5,,36.7,-594,29,34,1007.27,35.9,0
"2017-01-29 05:15:21+00",11.5,13.5,,36.4,-505,-21,18,1007.34,35.6,0
"2017-01-29 05:20:21+00",12.3,14.3,,36.2,-537,-15,26,1007.48,35.4,0
"2017-01-29 05:25:21+00",11.4,12.4,,36.1,-501,-9,24,1007.37,35.3,0
"2017-01-29 05:30:21+00",11.5,13.5,,36,-508,7,27,1007.31,35.1,0
"2017-01-29 05:35:21+00",10.1,12.1,,35.8,-451,6,25,1007.24,34.9,0
"2017-01-29 05:40:21+00",10.8,11.8,,35.7,-479,5,22,1007.27,34.7,0
"2017-01-29 05:45:21+00",10.7,12.7,,35.6,-471,25,20,1007.19,34.6,0
"2017-01-29 05:50:21+00",11.0,12.0,,35.5,-489,-5,14,1007.25,34.4,0
"2017-01-29 05:55:21+00",10.2,11.2,,35.5,-446,19,18,1007.25,34.3,0
"2017-01-29 06:00:21+00",10.4,12.4,,35.5,-454,-6,18,1007.3,34.3,0
"2017-01-29 06:05:21+00",8.6,9.6,,35.5,-371,9,19,1007.17,34.2,0
"2017-01-29 06:10:21+00",8.1,9.1,,35.5,-345,95,30,1006.9,34,0
"2017-01-29 06:15:21+00",10.5,12.5,,35.6,-435,182,30,1006.87,34,0
"2017-01-29 06:20:21+00",9.1,10.1,,35.7,-383,152,29,1006.9,34,0
"2017-01-29 06:25:21+00",8.4,9.4,,35.6,-335,171,22,1006.9,34,0
"2017-01-29 06:30:21+00",8.8,9.8,,35.4,-332,192,18,1006.87,33.7,0
"2017-01-29 06:35:21+00",7.5,8.5,,35.5,-302,125,23,1007,33.5,0
"2017-01-29 06:40:21+00",7.5,8.5,,35.5,-306,130,21,1006.98,33.4,0
"2017-01-29 06:45:21+00",7.3,8.3,,35.7,-307,120,23,1007.02,33.4,0
"2017-01-29 06:50:21+00",6.0,7.0,,35.5,-237,87,20,1007.06,33.3,0
"2017-01-29 06:55:21+00",4.1,5.1,,34.8,-173,1,9,1007.07,32.9,0
"2017-01-29 07:00:21+00",4.8,5.8,,34.7,-200,-84,7,1007.11,32.4,0
"2017-01-29 07:05:21+00",7.1,7.1,,34.8,-281,-83,2,1007.12,32,0
"2017-01-29 07:10:21+00",9.0,10.0,,35,-291,-252,10,1007.31,31.5,0
"2017-01-29 07:15:21+00",7.4,8.4,,34.6,-220,-245,1,1007.21,31,0
"2017-01-29 07:20:21+00",8.2,8.2,,34.4,-271,-285,1,1007.31,31,0
"2017-01-29 07:25:21+00",9.6,10.6,,34.3,-253,-325,-1,1007.27,30.9,0
"2017-01-29 07:30:21+00",9.8,9.8,,34.2,-256,-337,0,1007.27,30.9,0
"2017-01-29 07:35:21+00",10.5,11.5,,33.9,-309,-361,0,1007.27,31.1,0
"2017-01-29 07:40:21+00",9.7,10.7,,34,-284,-331,-2,1007.29,31.4,0
"2017-01-29 07:45:21+00",8.9,9.9,,33.8,-238,-324,-1,1007.23,31.6,0
"2017-01-29 07:50:21+00",9.6,11.6,,33.7,-260,-346,-3,1007.28,31.7,0
"2017-01-29 07:55:21+00",10.7,11.7,,33.8,-304,-373,-1,1007.3,32,0
"2017-01-29 08:00:21+00",9.4,10.4,,33.9,-243,-345,0,1007.19,32.3,0
"2017-01-29 08:05:21+00",8.7,9.7,,33.8,-169,-334,-9,1007.1,32.3,0
"2017-01-29 08:10:21+00",8.5,9.5,,33.8,-165,-325,-4,1006.95,32.3,0
"2017-01-29 08:15:21+00",7.9,8.9,,33.7,-160,-298,-5,1006.9,32.1,0
"2017-01-29 08:20:21+00",7.4,8.4,,33.9,-149,-275,-1,1006.79,32,0
"2017-01-29 08:25:21+00",7.8,8.8,,33.9,-144,-299,-6,1006.76,31.9,0
"2017-01-29 08:30:21+00",7.6,7.6,,34.5,-111,-297,-8,1006.74,31.8,0
"2017-01-29 08:35:21+00",7.9,8.9,,35,-121,-308,-8,1006.79,31.8,0
"2017-01-29 08:40:21+00",7.6,8.6,,35.3,-81,-313,-6,1006.71,32.1,0
"2017-01-29 08:45:21+00",8.3,9.3,,35.8,-119,-326,-7,1006.76,32.2,0
"2017-01-29 08:50:21+00",8.0,9.0,,35.8,-140,-311,-6,1006.84,32.3,0
"2017-01-29 08:55:21+00",9.4,10.4,,36.1,-176,-362,-8,1006.93,32.7,0
"2017-01-29 09:00:21+00",8.2,10.2,,36.3,-148,-315,-4,1006.97,33.5,0
"2017-01-29 09:05:21+00",5.9,6.9,,36.2,-105,-225,-5,1006.87,34,0
"2017-01-29 09:10:21+00",6.0,7.0,,36.4,-126,-226,-6,1006.96,34.2,0
"2017-01-29 09:15:21+00",7.1,7.1,,36.6,-158,-267,-2,1006.97,34.2,0
"2017-01-29 09:20:21+00",7.0,8.0,,36.8,-162,-261,1,1007,34.4,0
"2017-01-29 09:25:21+00",7.3,8.3,,36.9,-170,-271,-5,1007.09,34.6,0
"2017-01-29 09:30:21+00",7.0,8.0,,37,-168,-260,3,1006.96,34.8,0
"2017-01-29 09:35:21+00",6.4,8.4,,37.1,-180,-220,-2,1006.91,35.1,0
"2017-01-29 09:40:21+00",6.1,6.1,,37,-202,-157,3,1006.91,35.2,0
"2017-01-29 09:45:21+00",5.9,6.9,,37,-185,-163,1,1006.95,35.2,0
"2017-01-29 09:50:21+00",6.8,7.8,,36.9,-225,-178,-4,1006.96,35.2,0
"2017-01-29 09:55:21+00",6.6,6.6,,37.2,-214,-184,3,1006.95,35.3,0
"2017-01-29 10:00:21+00",6.4,7.4,,37.1,-224,-157,0,1006.94,35.4,0
"2017-01-29 10:05:21+00",5.2,6.2,,37.3,-174,-139,14,1006.82,35.5,0
"2017-01-29 10:10:21+00",4.6,6.6,,37,-181,-94,5,1006.98,35.6,0
"2017-01-29 10:15:21+00",4.2,5.2,,36.9,-168,-68,8,1006.9,35.6,0
"2017-01-29 10:20:21+00",3.0,4.0,,36.6,-116,33,11,1006.81,35.5,0
"2017-01-29 10:25:21+00",3.8,3.8,,36.4,-133,77,10,1006.78,35.2,0
"2017-01-29 10:30:21+00",2.7,2.7,,36.6,-105,-12,4,1006.7,35.1,0
"2017-01-29 10:35:21+00",2.3,4.3,,36.9,-73,-49,-2,1006.69,35,0
"2017-01-29 10:40:21+00",1.1,1.1,,37,-40,6,1,1006.64,35,0
"2017-01-29 10:45:21+00",1.4,2.4,,36.9,-21,46,2,1006.7,34.9,0
"2017-01-29 10:50:21+00",5.2,5.2,,36.9,-137,175,14,1006.7,34.7,0
"2017-01-29 10:55:21+00",2.6,3.6,,37.1,-93,53,9,1006.65,34.6,0
"2017-01-29 11:00:21+00",1.8,3.8,,37.2,-47,-18,-14,1006.59,34.8,0
"2017-01-29 11:05:21+00",3.3,4.3,,37.4,-131,-12,13,1006.68,35.1,0
"2017-01-29 11:10:21+00",3.0,4.0,,37.3,-120,-2,8,1006.51,35.3,0
"2017-01-29 11:15:21+00",3.7,4.7,,37.3,-107,-113,2,1006.54,35.4,0
"2017-01-29 11:20:21+00",3.8,3.8,,37.5,-110,-120,1,1006.47,35.5,0
"2017-01-29 11:25:21+00",4.5,5.5,,37.5,-140,-133,0,1006.47,35.5,0
"2017-01-29 11:30:21+00",4.6,5.6,,37.5,-153,-115,6,1006.61,35.5,0
"2017-01-29 11:35:21+00",4.4,4.4,,37.5,-169,-95,7,1006.64,35.5,0
"2017-01-29 11:40:21+00",5.8,6.8,,37.5,-230,-125,10,1006.74,35.5,0
"2017-01-29 11:45:21+00",7.1,8.1,,37.6,-290,-149,10,1006.78,35.4,0
"2017-01-29 11:50:21+00",6.7,7.7,,37.6,-275,-139,7,1006.92,35.5,0
"2017-01-29 11:55:21+00",7.4,8.4,,37.4,-305,-76,0,1006.78,35.7,0
"2017-01-29 12:00:21+00",7.5,7.5,,37.5,-252,-197,6,1006.68,35.9,0
"2017-01-29 12:05:21+00",6.6,7.6,,37.6,-254,-146,11,1006.57,36,0
"2017-01-29 12:10:21+00",6.2,6.2,,37.5,-250,-66,8,1006.62,36.2,0
"2017-01-29 12:15:21+00",5.3,5.3,,37.6,-211,-59,10,1006.66,36.2,0
"2017-01-29 12:20:21+00",4.4,5.4,,37.5,-188,11,9,1006.61,36.2,0
"2017-01-29 12:25:21+00",5.9,6.9,,37.6,-240,-59,11,1006.75,36.2,0
"2017-01-29 12:30:21+00",6.2,7.2,,37.6,-266,-14,8,1006.85,36.1,0
"2017-01-29 12:35:21+00",4.6,5.6,,37.6,-193,1,9,1006.81,36.3,0
"2017-01-29 12:40:21+00",6.5,7.5,,37.6,-281,33,11,1006.8,36.5,0
"2017-01-29 12:45:21+00",6.3,8.3,,37.6,-269,21,11,1006.81,36.7,0
"2017-01-29 12:50:21+00",7.9,8.9,,37.7,-337,-39,10,1006.92,36.9,0
"2017-01-29 12:55:21+00",8.4,9.4,,37.7,-350,-69,9,1006.87,37,0
"2017-01-29 13:00:21+00",9.5,11.5,,38,-401,-102,31,1006.84,37.2,0
"2017-01-29 13:05:21+00",9.5,10.5,,38.2,-403,-129,9,1006.86,37.4,0
"2017-01-29 13:10:21+00",11.1,13.1,,38.2,-467,-143,17,1006.74,37.6,0.6
"2017-01-29 13:15:21+00",9.0,11.0,,38.2,-378,-97,36,1006.81,37.7,2.7
"2017-01-29 13:20:21+00",10.6,12.6,,38.2,-452,-74,35,1006.91,37.9,7.4
"2017-01-29 13:25:21+00",9.6,11.6,,38.1,-412,-39,43,1006.99,38,10.9
"2017-01-29 13:30:21+00",11.5,13.5,,38,-508,36,37,1006.93,38,22.3
"2017-01-29 13:35:21+00",11.8,12.8,,37.7,-524,10,24,1006.92,37.9,36
"2017-01-29 13:40:21+00",11.0,13.0,,37.6,-478,82,24,1006.96,38,94.3
"2017-01-29 13:45:21+00",9.5,11.5,,37.6,-414,100,86,1007.05,38.2,104.2
"2017-01-29 13:50:21+00",11.7,14.7,,37.5,-503,148,20,1007.03,38.3,116
"2017-01-29 13:55:21+00",11.2,12.2,,37.5,-480,134,24,1007.02,38.6,172.2
"2017-01-29 14:00:21+00",13.2,15.2,,37.3,-561,163,30,1007,38.6,146.6
"2017-01-29 14:05:21+00",13.2,15.2,,37.1,-563,204,48,1007.04,38.4,191.9
"2017-01-29 14:10:21+00",11.0,13.0,,37.1,-455,187,59,1007.08,38.2,98.6
"2017-01-29 14:15:21+00",11.7,13.7,,37.1,-484,221,36,1007.05,38,51.6
"2017-01-29 14:20:21+00",12.1,14.1,,37.6,-485,255,39,1007.02,37.9,46.4
"2017-01-29 14:25:21+00",16.7,18.7,,38,-626,414,64,1006.93,38.1,50.7
"2017-01-29 14:30:21+00",16.0,19.0,,38.3,-595,417,65,1007.04,38.1,15.8
"2017-01-29 14:35:21+00",18.8,20.8,,38.3,-672,506,46,1006.91,38.1,45.8
"2017-01-29 14:40:21+00",19.2,22.2,,38.2,-627,585,53,1007.08,38.1,49
"2017-01-29 14:45:21+00",18.1,20.1,,38.3,-577,558,43,1006.99,38.2,38.8
"2017-01-29 14:50:21+00",18.2,22.2,,38.6,-527,606,45,1006.9,38.4,153.8
"2017-01-29 14:55:21+00",17.2,21.2,,39.4,-594,499,85,1006.94,39.6,246.7
"2017-01-29 15:00:21+00",20.8,22.8,,39.5,-572,733,56,1006.89,40.3,274.9
"2017-01-29 15:05:21+00",20.3,24.3,,39.9,-701,594,73,1006.95,40.8,290.7
"2017-01-29 15:10:21+00",21.1,23.1,,39.9,-562,764,41,1007.14,41.1,354.5
"2017-01-29 15:15:21+00",20.5,24.5,,40.1,-693,625,84,1007.13,41.5,342.7
"2017-01-29 15:20:21+00",19.5,23.5,,39.7,-645,582,51,1007.38,40.6,156.1
"2017-01-29 15:25:21+00",20.4,23.4,,39.5,-595,709,45,1007.46,40.3,91.9
"2017-01-29 15:30:21+00",16.5,19.5,,39.3,-402,623,61,1007.46,40,74.7
"2017-01-29 15:35:21+00",17.6,21.6,,39.5,-479,629,55,1007.55,40,119.1
"2017-01-29 15:40:21+00",18.3,21.3,,39.4,-483,657,36,1007.56,40,97.4
"2017-01-29 15:45:21+00",17.6,19.6,,39.4,-500,621,52,1007.46,39.9,112.3
"2017-01-29 15:50:21+00",13.5,17.5,,39.4,-425,432,65,1007.55,39.9,93.2
"2017-01-29 15:55:21+00",15.5,18.5,,39.5,-476,508,50,1007.52,40,114.4
"2017-01-29 16:00:21+00",15.2,18.2,,39.6,-472,497,71,1007.61,40.1,92
"2017-01-29 16:05:21+00",18.0,19.0,,39.5,-590,540,53,1007.66,39.9,67.8
"2017-01-29 16:10:21+00",18.7,20.7,,39.3,-634,543,47,1007.67,39.7,82
"2017-01-29 16:15:21+00",17.7,21.7,,39.5,-575,551,53,1007.61,39.8,97.9
"2017-01-29 16:20:21+00",16.8,18.8,,39.3,-567,504,49,1007.67,39.8,98.3
"2017-01-29 16:25:21+00",16.1,18.1,,39.2,-540,481,50,1007.63,39.6,90.4
"2017-01-29 16:30:21+00",15.9,18.9,,39.2,-521,470,36,1007.6,39.6,113.1
"2017-01-29 16:35:21+00",15.4,18.4,,39.2,-592,372,48,1007.53,39.7,89.6
"2017-01-29 16:40:21+00",14.1,16.1,,39.2,-514,368,40,1007.4,39.7,110.6
"2017-01-29 16:45:21+00",13.0,15.0,,39.2,-416,410,55,1007.23,39.8,148.4
"2017-01-29 16:50:21+00",12.7,14.7,,39.2,-367,438,37,1006.94,40,146.2
"2017-01-29 16:55:21+00",12.3,16.3,,39.3,-319,444,54,1006.77,40.1,113.7
"2017-01-29 17:00:21+00",11.1,12.1,,39.1,-338,362,31,1006.75,40,111.3
"2017-01-29 17:05:21+00",12.8,14.8,,39.2,-483,299,28,1006.6,40,116.6
"2017-01-29 17:10:21+00",8.4,9.4,,39.4,-301,215,67,1006.6,40.2,204.3
"2017-01-29 17:15:21+00",9.9,10.9,,39.4,-365,254,38,1006.53,40.5,137.7
"2017-01-29 17:20:21+00",11.4,14.4,,39.8,-437,260,68,1006.49,40.9,312.8
"2017-01-29 17:25:21+00",11.4,14.4,,39.8,-480,152,51,1006.37,41.2,258.9
"2017-01-29 17:30:21+00",13.6,14.6,,39.7,-571,209,26,1006.25,41.2,205.4
"2017-01-29 17:35:21+00",12.0,14.0,,39.6,-491,217,19,1006.13,41,158.6
"2017-01-29 17:40:21+00",10.0,13.0,,39.9,-403,189,46,1006.08,41.2,221.8
"2017-01-29 17:45:21+00",8.8,9.8,,39.9,-369,130,47,1005.95,41.9,392.5
"2017-01-29 17:50:21+00",12.5,15.5,,40.2,-528,205,32,1005.84,42.8,326.8
"2017-01-29 17:55:21+00",13.1,14.1,,40.2,-540,217,10,1005.77,42.1,147.2
"2017-01-29 18:00:21+00",13.5,16.5,,40.3,-573,220,34,1005.79,41.6,126
"2017-01-29 18:05:21+00",14.0,15.0,,40.2,-588,221,24,1005.74,41.2,126.9
"2017-01-29 18:10:21+00",12.2,14.2,,40.4,-502,239,35,1005.7,41.2,109.4
"2017-01-29 18:15:21+00",9.9,10.9,,40.3,-406,165,42,1005.6,41.1,104.8
"2017-01-29 18:20:21+00",10.3,12.3,,40.4,-430,177,15,1005.61,41.2,83.1
"2017-01-29 18:25:21+00",11.4,12.4,,40.5,-485,149,23,1005.47,41.1,69.6
"2017-01-29 18:30:21+00",9.3,10.3,,40.5,-400,75,33,1005.41,41.1,83.3
"2017-01-29 18:35:21+00",9.3,10.3,,40.7,-373,180,31,1005.41,41.5,124.5
"2017-01-29 18:40:21+00",13.1,15.1,,41,-556,180,36,1005.37,41.9,132.2
"2017-01-29 18:45:21+00",12.1,13.1,,41.2,-538,35,31,1005.42,41.9,87.9
"2017-01-29 18:50:21+00",11.8,12.8,,41,-517,91,59,1005.41,41.6,61.8
"2017-01-29 18:55:21+00",10.7,11.7,,41.1,-470,38,62,1005.41,41.5,42.1
"2017-01-29 19:00:21+00",10.9,13.9,,41.2,-478,47,47,1005.44,41.4,41.8
"2017-01-29 19:05:21+00",12.0,13.0,,41.2,-530,-13,19,1005.4,41.5,66.2
"2017-01-29 19:10:21+00",16.6,18.6,,41.6,-731,98,44,1005.38,42,171.1
"2017-01-29 19:15:21+00",13.9,16.9,,41.6,-609,106,32,1005.36,42.4,71.7
"2017-01-29 19:20:21+00",16.8,19.8,,41.8,-733,179,49,1005.2,42.8,71.5
"2017-01-29 19:25:21+00",17.4,20.4,,41.4,-772,118,57,1005.16,42.2,40.8
"2017-01-29 19:30:21+00",17.9,19.9,,41.5,-775,-82,34,1005.35,41.8,46.5
"2017-01-29 19:35:21+00",13.6,15.6,,41.7,-598,0,48,1005.44,42,169.4
"2017-01-29 19:40:21+00",14.6,15.6,,41.4,-636,159,44,1005.51,42,32.1
"2017-01-29 19:45:21+00",15.2,17.2,,41.3,-669,156,51,1005.47,41.7,24
"2017-01-29 19:50:21+00",16.3,18.3,,41.2,-719,129,44,1005.64,41.4,13.1
"2017-01-29 19:55:21+00",14.6,16.6,,41.2,-638,57,39,1005.68,41.3,16.7
"2017-01-29 20:00:21+00",14.0,16.0,,41.2,-619,85,23,1005.71,41.4,32.6
"2017-01-29 20:05:21+00",13.0,15.0,,41.1,-572,88,41,1005.74,41.3,18.4
"2017-01-29 20:10:21+00",14.7,16.7,,41,-633,207,36,1005.75,41.2,21.6
"2017-01-29 20:15:21+00",15.2,17.2,,41,-644,245,30,1005.77,41.1,34.3
"2017-01-29 20:20:21+00",14.9,16.9,,41,-634,210,42,1005.74,41.1,31.4
"2017-01-29 20:25:21+00",14.1,16.1,,41.1,-618,166,33,1005.93,41.2,36.1
"2017-01-29 20:30:21+00",15.7,18.7,,41.1,-698,67,47,1005.85,41.2,26.2
"2017-01-29 20:35:21+00",16.2,18.2,,41.1,-717,48,44,1005.83,41.1,26.5
"2017-01-29 20:40:21+00",13.6,15.6,,41.2,-599,143,47,1005.85,41.2,63.8
"2017-01-29 20:45:21+00",13.9,15.9,,41.2,-596,218,29,1005.89,41.5,144.4
"2017-01-29 20:50:21+00",14.8,16.8,,41.4,-630,225,35,1005.77,42,39.6
"2017-01-29 20:55:21+00",16.0,18.0,,41,-670,277,39,1005.88,41.4,14.2
"2017-01-29 21:00:21+00",16.7,18.7,,40.9,-700,286,32,1005.95,41,10.2
"2017-01-29 21:05:21+00",15.9,18.9,,40.8,-656,277,50,1005.93,40.7,2.8
"2017-01-29 21:10:21+00",15.6,17.6,,40.9,-645,267,32,1006.03,40.6,1.1
"2017-01-29 21:15:21+00",16.1,19.1,,41,-696,166,44,1006.01,40.6,3
"2017-01-29 21:20:21+00",12.8,13.8,,40.8,-540,205,45,1006.13,40.5,1.8
"2017-01-29 21:25:21+00",13.2,14.2,,40.6,-559,201,28,1006.15,40.3,1.6
"2017-01-29 21:30:21+00",12.7,14.7,,40.6,-550,189,40,1006.19,40.2,0
"2017-01-29 21:35:21+00",13.1,16.1,,40.5,-556,227,40,1006.25,40,0
"2017-01-29 21:40:21+00",12.9,14.9,,40.6,-548,166,48,1006.3,40.1,0
"2017-01-29 21:45:21+00",12.5,13.5,,40.6,-529,182,30,1006.35,40.1,0.3
"2017-01-29 21:50:21+00",12.5,14.5,,40.6,-551,148,41,1006.4,40,0.2
"2017-01-29 21:55:21+00",12.5,15.5,,40.4,-531,174,47,1006.44,39.8,0
"2017-01-29 22:00:21+00",13.8,14.8,,40.3,-590,194,39,1006.43,39.7,0
"2017-01-29 22:05:21+00",12.1,13.1,,40.1,-502,187,35,1006.47,39.4,0
"2017-01-29 22:10:21+00",11.8,12.8,,40,-504,169,36,1006.52,39.1,0
"2017-01-29 22:15:21+00",12.0,13.0,,40,-532,111,33,1006.58,39,0
"2017-01-29 22:20:21+00",10.9,11.9,,39.8,-484,105,29,1006.64,38.8,0
"2017-01-29 22:25:21+00",10.2,11.2,,39.7,-446,87,24,1006.66,38.5,0
"2017-01-29 22:30:21+00",10.1,11.1,,39.6,-442,37,16,1006.67,38.2,0
"2017-01-29 22:35:21+00",10.1,11.1,,39.4,-447,30,20,1006.75,37.9,0
"2017-01-29 22:40:21+00",9.5,10.5,,39.2,-418,37,16,1006.74,37.6,0
"2017-01-29 22:45:21+00",8.6,9.6,,39.2,-381,49,19,1006.86,37.3,0
"2017-01-29 22:50:21+00",8.9,8.9,,39.1,-391,12,14,1006.79,37,0
"2017-01-29 22:55:21+00",9.3,10.3,,39,-411,15,13,1006.96,36.8,0
"2017-01-29 23:00:21+00",9.3,10.3,,38.9,-407,7,12,1007,36.7,0
"2017-01-29 23:05:21+00",9.2,10.2,,38.9,-397,-20,12,1007.06,36.7,0
"2017-01-29 23:10:21+00",9.3,10.3,,39.1,-413,0,13,1007.09,36.8,0
"2017-01-29 23:15:21+00",8.5,8.5,,39.1,-374,20,17,1007.04,36.8,0
"2017-01-29 23:20:21+00",8.3,8.3,,39,-364,14,13,1007.07,36.6,0
"2017-01-29 23:25:21+00",7.7,8.7,,38.9,-336,-1,13,1007.12,36.4,0
"2017-01-29 23:30:21+00",6.8,7.8,,38.8,-298,-10,7,1007.11,36.1,0
"2017-01-29 23:35:21+00",7.0,7.0,,38.7,-308,26,10,1007.17,35.9,0
"2017-01-29 23:40:21+00",5.7,6.7,,38.6,-241,40,9,1007.26,35.7,0
"2017-01-29 23:45:21+00",6.8,7.8,,38.5,-292,-17,11,1007.3,35.6,0
"2017-01-29 23:50:21+00",8.4,8.4,,38.7,-358,-48,9,1007.37,35.5,0
"2017-01-29 23:55:21+00",8.7,9.7,,38.8,-370,-47,7,1007.37,35.2,0
